Notices

What's New in latest Release from April 7th, 2021:

- Updated Glossary, including Speed of Maximum Gust, and Total Hourly Precipitation

- Updated national and regional climate services offices contacts and prices information

- Addition of station inventory lists for 1981-2010, 1971-2000, and 1961-1990 Normals.

If you haven't already, please take our survey and provide feedback about our website: https://eccc.sondage-survey.ca/f/LanguageSelection.aspx?s=442ca660-fcf1-47c0-95a9-59707d6fd709

Hourly Data Report for April 18, 2021

WIARTON A
ONTARIO
Current Station Operator: NAVCAN

44°44'39.000" N
81°06'31.000" W
221.90 m
6119499
71633
YVV

Download Data

Hourly Data (April 2021)
Hourly Data Report for April 18, 2021
TIME
LST
Temp Definition
°C
Dew Point Definition
°C
Rel Hum Definition
%
Precip. Amount Definition
mm

Wind Dir Definition
10's deg

Wind Spd Definition
km/h
Visibility Definition
km
Stn Press Definition
kPa
Hmdx Definition


Wind Chill Definition


Weather Definition


00:00 2.5 1.5 93   21 12 24.1 98.48     LegendNANA
01:00 2.6 1.2 90   20 9 24.1 98.45     Mainly Clear
02:00 2.8 0.2 83   21 11 24.1 98.42     LegendNANA
03:00 2.3 -0.3 83   21 11 24.1 98.42     LegendNANA
04:00 2.0 -1.0 80   22 12 24.1 98.43     Clear
05:00 1.4 -0.8 85   23 7 24.1 98.43     LegendNANA
06:00 1.4 -0.6 86   23 5 24.1 98.46     LegendNANA
07:00 2.9 1.1 88   20 9 24.1 98.50     Mainly Clear
08:00 4.4 1.2 80   25 10 24.1 98.50     LegendNANA
09:00 5.3 1.2 75   27 12 24.1 98.47     LegendNANA
10:00 6.3 1.6 72   26 11 24.1 98.47     Mainly Clear
11:00 6.2 1.1 70   27 17 24.1 98.48     LegendNANA
12:00 6.6 2.3 74   26 12 24.1 98.45     LegendNANA
13:00 6.7 0.9 67   27 20 24.1 98.42     Mostly Cloudy
14:00 5.3 0.4 71   28 17 24.1 98.40     LegendNANA
15:00 5.0 1.5 78   25 17 24.1 98.38     LegendNANA
16:00 5.9 1.2 72   27 13 24.1 98.37     Mostly Cloudy
17:00 6.0 1.4 72   26 11 24.1 98.37     LegendNANA
18:00 5.2 0.8 73   26 11 24.1 98.38     LegendNANA
19:00 4.0 0.4 78   25 8 24.1 98.36     Clear
20:00 2.7 0.4 85   22 7 24.1 98.39     LegendNANA
21:00 2.2 0.2 87   20 7 24.1 98.40     LegendNANA
22:00 0.4 -0.7 92   19 8 24.1 98.36     Clear
23:00 0.3 -1.0 91   18 8 24.1 98.33     LegendNANA

Notes on Data Quality.

Legend

  • E = Estimated
  • M = Missing
  • NA = Not Available*
  • [empty] = Indicates an unobserved value
Date modified: